Home   Weather   Bucaramanga   Past weeks
Flag for Colombia

Past Weather in Bucaramanga, Colombia — Yesterday and Last 2 Weeks

Now
79 °F

Partly sunny.


Feels Like: 81 °F
Forecast: 93 / 66 °F
Wind: 7 mph from North

Location: Bucaramanga / Palonegro

Current Time: Jan 19, 2019 at 12:23:48 pm

Latest Report: Jan 19, 2019 at 12:00 pm


Visibility: N/A

Pressure: 30.00 "Hg (26.90 "Hg at 956m altitude)

Humidity: 70%

Dew Point: 68 °F

Location of BucaramangaLocation

Past Weather in Bucaramanga — Graph

°F

Bucaramanga Temperature Yesterday

Maximum temperature yesterday: 81 °F (at 1:00 pm)
Minimum temperature yesterday: 66 °F (at 6:00 am)
Average temperature yesterday: 73 °F

High & Low Weather Summary for the Past Weeks

 TemperatureHumidityPressure
High86 °F (Jan 4, 12:00 pm)100% (Jan 5, 9:00 pm)30.11 "Hg (Jan 5, 9:00 pm)
Low63 °F (Jan 11, 1:00 am)45% (Jan 4, 11:00 am)29.92 "Hg (Jan 4, 3:00 pm)
Average72 °F86%30.01 "Hg
* Reported Jan 4 11:00 am — Jan 19 11:00 am, Bucaramanga. Weather by CustomWeather, © 2019

Note: Actual official high and low records may vary slightly from our data, if they occured in-between our weather recording intervals... More about our weather records

Advertising

Bucaramanga Weather History for the Previous 24 Hours

Scroll right to see more
 ConditionsComfort  
Time TempWeatherWind HumidityBarometerVisibility
11:00 am
Sat, Jan 19
79 °FScattered clouds.5 mph70%30.02 "HgN/A
10:00 am75 °FScattered clouds.3 mph74%30.03 "HgN/A
9:00 am73 °FScattered clouds.5 mph74%30.03 "HgN/A
8:00 am72 °FScattered clouds.5 mph83%30.02 "HgN/A
7:00 am68 °FFog.3 mph73%30.00 "Hg5 mi
6:00 am68 °FPassing clouds.3 mph100%29.99 "HgN/A
1:00 am70 °FPassing clouds.5 mph88%29.99 "HgN/A
12:00 am68 °FPassing clouds.3 mph100%30.00 "HgN/A
11:00 pm
Fri, Jan 18
68 °FPassing clouds.No wind100%30.01 "HgN/A
10:00 pm68 °FPassing clouds.3 mph100%30.00 "HgN/A
9:00 pm68 °FPartly cloudy.3 mph100%29.99 "HgN/A
8:00 pm70 °FPartly cloudy.2 mph100%29.97 "HgN/A
7:00 pm72 °FPartly cloudy.3 mph94%29.94 "HgN/A
6:00 pm73 °FPassing clouds.3 mph83%29.93 "HgN/A
5:00 pm75 °FScattered showers. Scattered clouds.6 mph78%29.92 "HgN/A
4:00 pm79 °FScattered showers. Scattered clouds.8 mph70%29.92 "HgN/A
3:00 pm79 °FScattered clouds.9 mph70%29.92 "HgN/A
2:00 pm81 °FScattered clouds.8 mph66%29.95 "HgN/A
1:00 pm81 °FPassing clouds.7 mph62%29.97 "HgN/A
12:00 pm79 °FScattered clouds.6 mph70%29.99 "HgN/A
Weather by CustomWeather, © 2019

See weather overview